<?xml version="1.0" encoding="UTF-8" standalone="no" ?>
<gpx xmlns="http://www.topografix.com/GPX/1/1" xmlns:xsi="http://www.w3.org/2001/XMLSchema-instance" xsi:schemaLocation="http://www.topografix.com/GPX/1/1 http://www.topografix.com/GPX/1/1/gpx.xsd" version="1.1" creator="VisuGPX - https://www.visugpx.com">
  <metadata>
    <name>Eyne-Ur-Font-Romeu-Mont Louis</name>
    <desc><![CDATA[Sortie en Cerdagne. 1000m de D+ et 49km]]></desc>
  </metadata>
  <trk>
    <name><![CDATA[Eyne-Ur-Font-Romeu-Mont Louis-49km-1000D+]]></name>
    <trkseg>
      <trkpt lat="42.47393" lon="2.08364">
        <ele>1601.1</ele>
        <time>2019-02-21T15:32:07Z</time>
      </trkpt>
      <trkpt lat="42.47402" lon="2.08313">
        <ele>1595</ele>
        <time>2019-02-21T15:32:07Z</time>
      </trkpt>
      <trkpt lat="42.47408" lon="2.08259">
        <ele>1587.4</ele>
        <time>2019-02-21T15:32:07Z</time>
      </trkpt>
      <trkpt lat="42.4741" lon="2.0826">
        <ele>1587.4</ele>
      </trkpt>
      <trkpt lat="42.47433" lon="2.08242">
        <ele>1585.8</ele>
        <time>2019-02-21T15:32:07Z</time>
      </trkpt>
      <trkpt lat="42.47427" lon="2.08196">
        <ele>1581</ele>
      </trkpt>
      <trkpt lat="42.47406" lon="2.08176">
        <ele>1578.1</ele>
        <time>2019-02-21T15:32:07Z</time>
      </trkpt>
      <trkpt lat="42.47352" lon="2.08187">
        <ele>1579.9</ele>
        <time>2019-02-21T15:32:07Z</time>
      </trkpt>
      <trkpt lat="42.47333" lon="2.08202">
        <ele>1581.8</ele>
        <time>2019-02-21T15:32:07Z</time>
      </trkpt>
      <trkpt lat="42.47303" lon="2.08225">
        <ele>1584.4</ele>
        <time>2019-02-21T15:32:07Z</time>
      </trkpt>
      <trkpt lat="42.47284" lon="2.08224">
        <ele>1584.4</ele>
      </trkpt>
      <trkpt lat="42.47265" lon="2.08215">
        <ele>1582.7</ele>
        <time>2019-02-21T15:32:07Z</time>
      </trkpt>
      <trkpt lat="42.47283" lon="2.0817">
        <ele>1575.4</ele>
        <time>2019-02-21T15:32:07Z</time>
      </trkpt>
      <trkpt lat="42.47297" lon="2.08132">
        <ele>1572.5</ele>
        <time>2019-02-21T15:32:07Z</time>
      </trkpt>
      <trkpt lat="42.47301" lon="2.08132">
        <ele>1572.7</ele>
      </trkpt>
      <trkpt lat="42.47323" lon="2.08102">
        <ele>1570</ele>
        <time>2019-02-21T15:32:07Z</time>
      </trkpt>
      <trkpt lat="42.47348" lon="2.08071">
        <ele>1567</ele>
        <time>2019-02-21T15:32:07Z</time>
      </trkpt>
      <trkpt lat="42.47378" lon="2.08046">
        <ele>1564.4</ele>
        <time>2019-02-21T15:32:07Z</time>
      </trkpt>
      <trkpt lat="42.474" lon="2.08015">
        <ele>1560.3</ele>
        <time>2019-02-21T15:32:07Z</time>
      </trkpt>
      <trkpt lat="42.47405" lon="2.0799">
        <ele>1557.8</ele>
      </trkpt>
      <trkpt lat="42.47396" lon="2.07958">
        <ele>1556.5</ele>
        <time>2019-02-21T15:32:07Z</time>
      </trkpt>
      <trkpt lat="42.47377" lon="2.07906">
        <ele>1556.3</ele>
        <time>2019-02-21T15:32:07Z</time>
      </trkpt>
      <trkpt lat="42.47382" lon="2.07882">
        <ele>1557.8</ele>
      </trkpt>
      <trkpt lat="42.47399" lon="2.07853">
        <ele>1558.9</ele>
        <time>2019-02-21T15:32:07Z</time>
      </trkpt>
      <trkpt lat="42.47421" lon="2.07821">
        <ele>1561.5</ele>
        <time>2019-02-21T15:32:07Z</time>
      </trkpt>
      <trkpt lat="42.47457" lon="2.07807">
        <ele>1559.9</ele>
        <time>2019-02-21T15:32:07Z</time>
      </trkpt>
      <trkpt lat="42.4749" lon="2.07789">
        <ele>1559.3</ele>
        <time>2019-02-21T15:32:07Z</time>
      </trkpt>
      <trkpt lat="42.47525" lon="2.07772">
        <ele>1556.4</ele>
        <time>2019-02-21T15:32:07Z</time>
      </trkpt>
      <trkpt lat="42.47526" lon="2.07774">
        <ele>1556</ele>
      </trkpt>
      <trkpt lat="42.47568" lon="2.07775">
        <ele>1547.7</ele>
        <time>2019-02-21T15:32:07Z</time>
      </trkpt>
      <trkpt lat="42.47595" lon="2.07747">
        <ele>1546.4</ele>
        <time>2019-02-21T15:32:07Z</time>
      </trkpt>
      <trkpt lat="42.47618" lon="2.0771">
        <ele>1551.9</ele>
        <time>2019-02-21T15:32:07Z</time>
      </trkpt>
      <trkpt lat="42.47644" lon="2.07684">
        <ele>1552.1</ele>
        <time>2019-02-21T15:32:07Z</time>
      </trkpt>
      <trkpt lat="42.47696" lon="2.07685">
        <ele>1541.9</ele>
        <time>2019-02-21T15:32:07Z</time>
      </trkpt>
      <trkpt lat="42.47719" lon="2.07657">
        <ele>1540.4</ele>
        <time>2019-02-21T15:32:07Z</time>
      </trkpt>
      <trkpt lat="42.47743" lon="2.07627">
        <ele>1540.1</ele>
        <time>2019-02-21T15:32:07Z</time>
      </trkpt>
      <trkpt lat="42.47772" lon="2.07605">
        <ele>1538</ele>
        <time>2019-02-21T15:32:07Z</time>
      </trkpt>
      <trkpt lat="42.4779" lon="2.07561">
        <ele>1538.3</ele>
        <time>2019-02-21T15:32:07Z</time>
      </trkpt>
      <trkpt lat="42.47802" lon="2.07514">
        <ele>1538.7</ele>
        <time>2019-02-21T15:32:07Z</time>
      </trkpt>
      <trkpt lat="42.47814" lon="2.07468">
        <ele>1537.4</ele>
        <time>2019-02-21T15:32:07Z</time>
      </trkpt>
      <trkpt lat="42.47824" lon="2.07419">
        <ele>1535.9</ele>
        <time>2019-02-21T15:32:07Z</time>
      </trkpt>
      <trkpt lat="42.47829" lon="2.07419">
        <ele>1534.3</ele>
      </trkpt>
      <trkpt lat="42.47837" lon="2.07375">
        <ele>1538.6</ele>
        <time>2019-02-21T15:32:07Z</time>
      </trkpt>
      <trkpt lat="42.47846" lon="2.07328">
        <ele>1542.7</ele>
        <time>2019-02-21T15:32:07Z</time>
      </trkpt>
      <trkpt lat="42.4785" lon="2.07298">
        <ele>1544.4</ele>
        <time>2019-02-21T15:32:07Z</time>
      </trkpt>
      <trkpt lat="42.47827" lon="2.07258">
        <ele>1553.7</ele>
        <time>2019-02-21T15:32:07Z</time>
      </trkpt>
      <trkpt lat="42.47812" lon="2.07225">
        <ele>1553.4</ele>
        <time>2019-02-21T15:32:07Z</time>
      </trkpt>
      <trkpt lat="42.47801" lon="2.07195">
        <ele>1552</ele>
      </trkpt>
      <trkpt lat="42.47798" lon="2.07159">
        <ele>1549.7</ele>
        <time>2019-02-21T15:32:07Z</time>
      </trkpt>
      <trkpt lat="42.47813" lon="2.07117">
        <ele>1546.5</ele>
        <time>2019-02-21T15:32:07Z</time>
      </trkpt>
      <trkpt lat="42.47821" lon="2.07066">
        <ele>1543.3</ele>
        <time>2019-02-21T15:32:07Z</time>
      </trkpt>
      <trkpt lat="42.4782" lon="2.07014">
        <ele>1541.3</ele>
        <time>2019-02-21T15:32:07Z</time>
      </trkpt>
      <trkpt lat="42.47818" lon="2.06953">
        <ele>1537.8</ele>
        <time>2019-02-21T15:32:07Z</time>
      </trkpt>
      <trkpt lat="42.47838" lon="2.06907">
        <ele>1533.3</ele>
        <time>2019-02-21T15:32:07Z</time>
      </trkpt>
      <trkpt lat="42.47862" lon="2.06876">
        <ele>1533.5</ele>
        <time>2019-02-21T15:32:07Z</time>
      </trkpt>
      <trkpt lat="42.47883" lon="2.06842">
        <ele>1533.5</ele>
        <time>2019-02-21T15:32:07Z</time>
      </trkpt>
      <trkpt lat="42.4788" lon="2.0678">
        <ele>1535.1</ele>
        <time>2019-02-21T15:32:07Z</time>
      </trkpt>
      <trkpt lat="42.47881" lon="2.06731">
        <ele>1536.8</ele>
        <time>2019-02-21T15:32:07Z</time>
      </trkpt>
      <trkpt lat="42.47906" lon="2.06694">
        <ele>1537.4</ele>
        <time>2019-02-21T15:32:07Z</time>
      </trkpt>
      <trkpt lat="42.47929" lon="2.06666">
        <ele>1537.8</ele>
        <time>2019-02-21T15:32:07Z</time>
      </trkpt>
      <trkpt lat="42.47957" lon="2.06636">
        <ele>1537.3</ele>
        <time>2019-02-21T15:32:07Z</time>
      </trkpt>
      <trkpt lat="42.47978" lon="2.06606">
        <ele>1537.1</ele>
        <time>2019-02-21T15:32:07Z</time>
      </trkpt>
      <trkpt lat="42.47996" lon="2.06567">
        <ele>1536.2</ele>
        <time>2019-02-21T15:32:07Z</time>
      </trkpt>
      <trkpt lat="42.47994" lon="2.06565">
        <ele>1536.1</ele>
      </trkpt>
      <trkpt lat="42.48005" lon="2.06517">
        <ele>1533.7</ele>
        <time>2019-02-21T15:32:07Z</time>
      </trkpt>
      <trkpt lat="42.48018" lon="2.06471">
        <ele>1531.9</ele>
        <time>2019-02-21T15:32:07Z</time>
      </trkpt>
      <trkpt lat="42.48033" lon="2.06426">
        <ele>1530.1</ele>
        <time>2019-02-21T15:32:07Z</time>
      </trkpt>
      <trkpt lat="42.48055" lon="2.06392">
        <ele>1527.7</ele>
        <time>2019-02-21T15:32:07Z</time>
      </trkpt>
      <trkpt lat="42.48076" lon="2.06351">
        <ele>1524.4</ele>
        <time>2019-02-21T15:32:07Z</time>
      </trkpt>
      <trkpt lat="42.481" lon="2.06315">
        <ele>1519.9</ele>
        <time>2019-02-21T15:32:07Z</time>
      </trkpt>
      <trkpt lat="42.48112" lon="2.06279">
        <ele>1516.4</ele>
        <time>2019-02-21T15:32:07Z</time>
      </trkpt>
      <trkpt lat="42.48098" lon="2.0622">
        <ele>1514.2</ele>
        <time>2019-02-21T15:32:07Z</time>
      </trkpt>
      <trkpt lat="42.48095" lon="2.06174">
        <ele>1512.2</ele>
        <time>2019-02-21T15:32:07Z</time>
      </trkpt>
      <trkpt lat="42.48111" lon="2.06123">
        <ele>1505.9</ele>
        <time>2019-02-21T15:32:07Z</time>
      </trkpt>
      <trkpt lat="42.48112" lon="2.06071">
        <ele>1500.9</ele>
        <time>2019-02-21T15:32:07Z</time>
      </trkpt>
      <trkpt lat="42.48101" lon="2.06032">
        <ele>1498.3</ele>
        <time>2019-02-21T15:32:07Z</time>
      </trkpt>
      <trkpt lat="42.48086" lon="2.0598">
        <ele>1494.7</ele>
        <time>2019-02-21T15:32:07Z</time>
      </trkpt>
      <trkpt lat="42.48081" lon="2.05926">
        <ele>1491.9</ele>
        <time>2019-02-21T15:32:07Z</time>
      </trkpt>
      <trkpt lat="42.48083" lon="2.05867">
        <ele>1491</ele>
        <time>2019-02-21T15:32:07Z</time>
      </trkpt>
      <trkpt lat="42.48091" lon="2.05815">
        <ele>1489.8</ele>
        <time>2019-02-21T15:32:07Z</time>
      </trkpt>
      <trkpt lat="42.48076" lon="2.05772">
        <ele>1490.9</ele>
        <time>2019-02-21T15:32:07Z</time>
      </trkpt>
      <trkpt lat="42.4806" lon="2.05732">
        <ele>1491</ele>
        <time>2019-02-21T15:32:07Z</time>
      </trkpt>
      <trkpt lat="42.48034" lon="2.05702">
        <ele>1492</ele>
        <time>2019-02-21T15:32:07Z</time>
      </trkpt>
      <trkpt lat="42.48017" lon="2.05665">
        <ele>1492.1</ele>
        <time>2019-02-21T15:32:07Z</time>
      </trkpt>
      <trkpt lat="42.47895" lon="2.05678">
        <ele>1492.4</ele>
      </trkpt>
      <trkpt lat="42.47828" lon="2.05679">
        <ele>1491.8</ele>
      </trkpt>
      <trkpt lat="42.47764" lon="2.05679">
        <ele>1489.4</ele>
      </trkpt>
      <trkpt lat="42.47723" lon="2.05662">
        <ele>1486.9</ele>
      </trkpt>
      <trkpt lat="42.477" lon="2.05613">
        <ele>1482.9</ele>
        <time>2019-02-21T15:32:07Z</time>
      </trkpt>
      <trkpt lat="42.47663" lon="2.05536">
        <ele>1475.8</ele>
      </trkpt>
      <trkpt lat="42.47641" lon="2.05503">
        <ele>1474.8</ele>
      </trkpt>
      <trkpt lat="42.47621" lon="2.05476">
        <ele>1474.7</ele>
      </trkpt>
      <trkpt lat="42.47581" lon="2.0547">
        <ele>1477.6</ele>
      </trkpt>
      <trkpt lat="42.47456" lon="2.05465">
        <ele>1482.3</ele>
        <time>2019-02-21T15:32:07Z</time>
      </trkpt>
      <trkpt lat="42.47358" lon="2.05459">
        <ele>1481.2</ele>
      </trkpt>
      <trkpt lat="42.47258" lon="2.05448">
        <ele>1480.6</ele>
      </trkpt>
      <trkpt lat="42.47209" lon="2.05414">
        <ele>1479.7</ele>
        <time>2019-02-21T15:32:07Z</time>
      </trkpt>
      <trkpt lat="42.47138" lon="2.05276">
        <ele>1480.3</ele>
      </trkpt>
      <trkpt lat="42.47059" lon="2.05103">
        <ele>1494.7</ele>
        <time>2019-02-21T15:32:07Z</time>
      </trkpt>
      <trkpt lat="42.47041" lon="2.04946">
        <ele>1485</ele>
      </trkpt>
      <trkpt lat="42.4702" lon="2.0473">
        <ele>1476.2</ele>
        <time>2019-02-21T15:32:07Z</time>
      </trkpt>
      <trkpt lat="42.46993" lon="2.04622">
        <ele>1475</ele>
      </trkpt>
      <trkpt lat="42.46934" lon="2.045">
        <ele>1466.4</ele>
      </trkpt>
      <trkpt lat="42.46881" lon="2.04417">
        <ele>1461.4</ele>
      </trkpt>
      <trkpt lat="42.46845" lon="2.04354">
        <ele>1457.1</ele>
        <time>2019-02-21T15:32:07Z</time>
      </trkpt>
      <trkpt lat="42.46837" lon="2.04284">
        <ele>1455.9</ele>
      </trkpt>
      <trkpt lat="42.46851" lon="2.04198">
        <ele>1452.8</ele>
      </trkpt>
      <trkpt lat="42.46815" lon="2.04078">
        <ele>1443.3</ele>
      </trkpt>
      <trkpt lat="42.46841" lon="2.03972">
        <ele>1444</ele>
        <time>2019-02-21T15:32:07Z</time>
      </trkpt>
      <trkpt lat="42.46836" lon="2.03871">
        <ele>1434.6</ele>
      </trkpt>
      <trkpt lat="42.46861" lon="2.03818">
        <ele>1434.5</ele>
      </trkpt>
      <trkpt lat="42.46917" lon="2.03729">
        <ele>1433</ele>
      </trkpt>
      <trkpt lat="42.46965" lon="2.03631">
        <ele>1426.6</ele>
        <time>2019-02-21T15:32:07Z</time>
      </trkpt>
      <trkpt lat="42.47003" lon="2.03528">
        <ele>1412</ele>
      </trkpt>
      <trkpt lat="42.47015" lon="2.03491">
        <ele>1409.9</ele>
      </trkpt>
      <trkpt lat="42.47012" lon="2.03447">
        <ele>1408.4</ele>
        <time>2019-02-21T15:32:07Z</time>
      </trkpt>
      <trkpt lat="42.46992" lon="2.03431">
        <ele>1403.1</ele>
      </trkpt>
      <trkpt lat="42.46967" lon="2.03435">
        <ele>1401.6</ele>
      </trkpt>
      <trkpt lat="42.46932" lon="2.03509">
        <ele>1407.3</ele>
      </trkpt>
      <trkpt lat="42.46875" lon="2.03532">
        <ele>1404.5</ele>
      </trkpt>
      <trkpt lat="42.46806" lon="2.03561">
        <ele>1398.6</ele>
        <time>2019-02-21T15:32:07Z</time>
      </trkpt>
      <trkpt lat="42.46777" lon="2.03537">
        <ele>1393.5</ele>
      </trkpt>
      <trkpt lat="42.46769" lon="2.03483">
        <ele>1387.4</ele>
      </trkpt>
      <trkpt lat="42.46758" lon="2.0339">
        <ele>1376</ele>
      </trkpt>
      <trkpt lat="42.46714" lon="2.03387">
        <ele>1374.3</ele>
      </trkpt>
      <trkpt lat="42.4667" lon="2.03399">
        <ele>1376.3</ele>
      </trkpt>
      <trkpt lat="42.46603" lon="2.03437">
        <ele>1378.7</ele>
      </trkpt>
      <trkpt lat="42.46532" lon="2.03444">
        <ele>1373.3</ele>
      </trkpt>
      <trkpt lat="42.46491" lon="2.03377">
        <ele>1354.3</ele>
        <time>2019-02-21T15:32:07Z</time>
      </trkpt>
      <trkpt lat="42.46443" lon="2.03402">
        <ele>1359.5</ele>
      </trkpt>
      <trkpt lat="42.46354" lon="2.03401">
        <ele>1359.5</ele>
      </trkpt>
      <trkpt lat="42.4633" lon="2.03459">
        <ele>1363.2</ele>
      </trkpt>
      <trkpt lat="42.46283" lon="2.03633">
        <ele>1363.9</ele>
        <time>2019-02-21T15:32:07Z</time>
      </trkpt>
      <trkpt lat="42.4622" lon="2.03773">
        <ele>1356.4</ele>
        <time>2019-02-21T15:32:07Z</time>
      </trkpt>
      <trkpt lat="42.46191" lon="2.03921">
        <ele>1345.6</ele>
      </trkpt>
      <trkpt lat="42.46147" lon="2.03994">
        <ele>1339</ele>
      </trkpt>
      <trkpt lat="42.4616" lon="2.04106">
        <ele>1335.2</ele>
      </trkpt>
      <trkpt lat="42.4614" lon="2.04152">
        <ele>1330.7</ele>
      </trkpt>
      <trkpt lat="42.46102" lon="2.04157">
        <ele>1326.4</ele>
      </trkpt>
      <trkpt lat="42.46013" lon="2.04082">
        <ele>1320.9</ele>
        <time>2019-02-21T15:32:07Z</time>
      </trkpt>
      <trkpt lat="42.45955" lon="2.04006">
        <ele>1317</ele>
      </trkpt>
      <trkpt lat="42.45933" lon="2.03869">
        <ele>1312.8</ele>
      </trkpt>
      <trkpt lat="42.45851" lon="2.03871">
        <ele>1308.8</ele>
        <time>2019-02-21T15:32:07Z</time>
      </trkpt>
      <trkpt lat="42.45731" lon="2.03827">
        <ele>1303</ele>
      </trkpt>
      <trkpt lat="42.45644" lon="2.0366">
        <ele>1301</ele>
        <time>2019-02-21T15:32:07Z</time>
      </trkpt>
      <trkpt lat="42.45659" lon="2.03548">
        <ele>1298.5</ele>
      </trkpt>
      <trkpt lat="42.45704" lon="2.03351">
        <ele>1293.4</ele>
      </trkpt>
      <trkpt lat="42.45725" lon="2.0324">
        <ele>1292.1</ele>
        <time>2019-02-21T15:32:07Z</time>
      </trkpt>
      <trkpt lat="42.45763" lon="2.03141">
        <ele>1288.6</ele>
      </trkpt>
      <trkpt lat="42.45759" lon="2.03049">
        <ele>1289.5</ele>
      </trkpt>
      <trkpt lat="42.4579" lon="2.02878">
        <ele>1288.7</ele>
        <time>2019-02-21T15:32:07Z</time>
      </trkpt>
      <trkpt lat="42.45782" lon="2.02596">
        <ele>1284</ele>
      </trkpt>
      <trkpt lat="42.45788" lon="2.02449">
        <ele>1278.8</ele>
      </trkpt>
      <trkpt lat="42.45777" lon="2.02402">
        <ele>1278.6</ele>
        <time>2019-02-21T15:32:07Z</time>
      </trkpt>
      <trkpt lat="42.45727" lon="2.0237">
        <ele>1279.4</ele>
      </trkpt>
      <trkpt lat="42.45715" lon="2.02344">
        <ele>1278.6</ele>
      </trkpt>
      <trkpt lat="42.4576" lon="2.02276">
        <ele>1273.3</ele>
      </trkpt>
      <trkpt lat="42.45794" lon="2.02229">
        <ele>1269.7</ele>
      </trkpt>
      <trkpt lat="42.45799" lon="2.02119">
        <ele>1268.1</ele>
      </trkpt>
      <trkpt lat="42.45797" lon="2.01991">
        <ele>1266.9</ele>
      </trkpt>
      <trkpt lat="42.45759" lon="2.01905">
        <ele>1274.4</ele>
        <time>2019-02-21T15:32:07Z</time>
      </trkpt>
      <trkpt lat="42.45724" lon="2.01815">
        <ele>1276.1</ele>
      </trkpt>
      <trkpt lat="42.45684" lon="2.01592">
        <ele>1275.2</ele>
        <time>2019-02-21T15:32:07Z</time>
      </trkpt>
      <trkpt lat="42.45583" lon="2.01053">
        <ele>1263.6</ele>
        <time>2019-02-21T15:32:07Z</time>
      </trkpt>
      <trkpt lat="42.45599" lon="2.0091">
        <ele>1263.4</ele>
        <time>2019-02-21T15:32:07Z</time>
      </trkpt>
      <trkpt lat="42.4564" lon="2.00708">
        <ele>1257.9</ele>
        <time>2019-02-21T15:32:07Z</time>
      </trkpt>
      <trkpt lat="42.45659" lon="2.00612">
        <ele>1254.7</ele>
      </trkpt>
      <trkpt lat="42.45757" lon="2.00415">
        <ele>1250.7</ele>
        <time>2019-02-21T15:32:07Z</time>
      </trkpt>
      <trkpt lat="42.45862" lon="2.00191">
        <ele>1246.5</ele>
        <time>2019-02-21T15:32:07Z</time>
      </trkpt>
      <trkpt lat="42.45987" lon="1.99711">
        <ele>1233.2</ele>
        <time>2019-02-21T15:32:07Z</time>
      </trkpt>
      <trkpt lat="42.4614" lon="1.99406">
        <ele>1214.4</ele>
        <time>2019-02-21T15:32:07Z</time>
      </trkpt>
      <trkpt lat="42.46188" lon="1.99273">
        <ele>1209.5</ele>
        <time>2019-02-21T15:32:07Z</time>
      </trkpt>
      <trkpt lat="42.46172" lon="1.99006">
        <ele>1205.1</ele>
      </trkpt>
      <trkpt lat="42.46172" lon="1.98915">
        <ele>1204.9</ele>
      </trkpt>
      <trkpt lat="42.46184" lon="1.98859">
        <ele>1204.1</ele>
      </trkpt>
      <trkpt lat="42.46215" lon="1.98824">
        <ele>1205.6</ele>
      </trkpt>
      <trkpt lat="42.46237" lon="1.98667">
        <ele>1214.7</ele>
        <time>2019-02-21T15:32:07Z</time>
      </trkpt>
      <trkpt lat="42.4625" lon="1.98517">
        <ele>1213.6</ele>
        <time>2019-02-21T15:32:07Z</time>
      </trkpt>
      <trkpt lat="42.46285" lon="1.98336">
        <ele>1211.7</ele>
      </trkpt>
      <trkpt lat="42.46323" lon="1.9817">
        <ele>1208.4</ele>
      </trkpt>
      <trkpt lat="42.46312" lon="1.98005">
        <ele>1204.3</ele>
        <time>2019-02-21T15:32:07Z</time>
      </trkpt>
      <trkpt lat="42.46283" lon="1.97785">
        <ele>1205.3</ele>
      </trkpt>
      <trkpt lat="42.46269" lon="1.97684">
        <ele>1206.3</ele>
        <time>2019-02-21T15:32:07Z</time>
      </trkpt>
      <trkpt lat="42.46207" lon="1.97548">
        <ele>1202.7</ele>
      </trkpt>
      <trkpt lat="42.46097" lon="1.97352">
        <ele>1197.4</ele>
        <time>2019-02-21T15:32:07Z</time>
      </trkpt>
      <trkpt lat="42.45983" lon="1.97177">
        <ele>1192.1</ele>
        <time>2019-02-21T15:32:07Z</time>
      </trkpt>
      <trkpt lat="42.45928" lon="1.97095">
        <ele>1192.1</ele>
      </trkpt>
      <trkpt lat="42.45796" lon="1.96859">
        <ele>1187.3</ele>
        <time>2019-02-21T15:32:07Z</time>
      </trkpt>
      <trkpt lat="42.45753" lon="1.96783">
        <ele>1186.1</ele>
        <time>2019-02-21T15:32:07Z</time>
      </trkpt>
      <trkpt lat="42.45658" lon="1.96622">
        <ele>1183.7</ele>
      </trkpt>
      <trkpt lat="42.45598" lon="1.96522">
        <ele>1183.1</ele>
      </trkpt>
      <trkpt lat="42.45534" lon="1.96384">
        <ele>1180</ele>
        <time>2019-02-21T15:32:07Z</time>
      </trkpt>
      <trkpt lat="42.45434" lon="1.96219">
        <ele>1176.8</ele>
      </trkpt>
      <trkpt lat="42.45322" lon="1.95978">
        <ele>1173.4</ele>
        <time>2019-02-21T15:32:07Z</time>
      </trkpt>
      <trkpt lat="42.45281" lon="1.95913">
        <ele>1174</ele>
        <time>2019-02-21T15:32:07Z</time>
      </trkpt>
      <trkpt lat="42.45231" lon="1.95827">
        <ele>1174.3</ele>
      </trkpt>
      <trkpt lat="42.45145" lon="1.95668">
        <ele>1168.2</ele>
      </trkpt>
      <trkpt lat="42.45103" lon="1.95556">
        <ele>1168.4</ele>
      </trkpt>
      <trkpt lat="42.45103" lon="1.95507">
        <ele>1169.1</ele>
        <time>2019-02-21T15:32:07Z</time>
      </trkpt>
      <trkpt lat="42.45309" lon="1.95472">
        <ele>1176.8</ele>
      </trkpt>
      <trkpt lat="42.45394" lon="1.95388">
        <ele>1177.4</ele>
        <time>2019-02-21T15:32:07Z</time>
      </trkpt>
      <trkpt lat="42.45648" lon="1.9514">
        <ele>1193.4</ele>
        <time>2019-02-21T15:32:07Z</time>
      </trkpt>
      <trkpt lat="42.45789" lon="1.94843">
        <ele>1202.7</ele>
        <time>2019-02-21T15:32:07Z</time>
      </trkpt>
      <trkpt lat="42.45858" lon="1.94623">
        <ele>1204.5</ele>
        <time>2019-02-21T15:32:07Z</time>
      </trkpt>
      <trkpt lat="42.45915" lon="1.94541">
        <ele>1205.3</ele>
      </trkpt>
      <trkpt lat="42.45952" lon="1.94463">
        <ele>1206</ele>
      </trkpt>
      <trkpt lat="42.46008" lon="1.94389">
        <ele>1208.4</ele>
      </trkpt>
      <trkpt lat="42.46031" lon="1.94326">
        <ele>1208.3</ele>
        <time>2019-02-21T15:32:07Z</time>
      </trkpt>
      <trkpt lat="42.46041" lon="1.94228">
        <ele>1206.5</ele>
      </trkpt>
      <trkpt lat="42.46081" lon="1.94117">
        <ele>1204.1</ele>
      </trkpt>
      <trkpt lat="42.46047" lon="1.94035">
        <ele>1201.1</ele>
      </trkpt>
      <trkpt lat="42.45977" lon="1.93991">
        <ele>1198.2</ele>
      </trkpt>
      <trkpt lat="42.46053" lon="1.93891">
        <ele>1201.8</ele>
        <time>2019-02-21T15:32:07Z</time>
      </trkpt>
      <trkpt lat="42.46123" lon="1.93791">
        <ele>1207.1</ele>
      </trkpt>
      <trkpt lat="42.4615" lon="1.93735">
        <ele>1209.4</ele>
      </trkpt>
      <trkpt lat="42.46186" lon="1.93694">
        <ele>1211.1</ele>
      </trkpt>
      <trkpt lat="42.46222" lon="1.93695">
        <ele>1213.9</ele>
        <time>2019-02-21T15:32:07Z</time>
      </trkpt>
      <trkpt lat="42.46254" lon="1.93759">
        <ele>1217.2</ele>
      </trkpt>
      <trkpt lat="42.463" lon="1.93892">
        <ele>1222.7</ele>
      </trkpt>
      <trkpt lat="42.46316" lon="1.93935">
        <ele>1219.1</ele>
      </trkpt>
      <trkpt lat="42.46352" lon="1.93927">
        <ele>1221.4</ele>
      </trkpt>
      <trkpt lat="42.46385" lon="1.93935">
        <ele>1221.3</ele>
      </trkpt>
      <trkpt lat="42.4645" lon="1.93914">
        <ele>1228.5</ele>
        <time>2019-02-21T15:32:07Z</time>
      </trkpt>
      <trkpt lat="42.46655" lon="1.9409">
        <ele>1255.2</ele>
        <time>2019-02-21T15:32:07Z</time>
      </trkpt>
      <trkpt lat="42.46709" lon="1.94217">
        <ele>1252.2</ele>
      </trkpt>
      <trkpt lat="42.4676" lon="1.94292">
        <ele>1252.1</ele>
      </trkpt>
      <trkpt lat="42.46816" lon="1.94356">
        <ele>1259.1</ele>
        <time>2019-02-21T15:32:07Z</time>
      </trkpt>
      <trkpt lat="42.4688" lon="1.9442">
        <ele>1275.2</ele>
      </trkpt>
      <trkpt lat="42.46905" lon="1.94472">
        <ele>1277.7</ele>
      </trkpt>
      <trkpt lat="42.46937" lon="1.94655">
        <ele>1274</ele>
        <time>2019-02-21T15:32:07Z</time>
      </trkpt>
      <trkpt lat="42.47005" lon="1.94744">
        <ele>1281</ele>
      </trkpt>
      <trkpt lat="42.47053" lon="1.94773">
        <ele>1290.5</ele>
      </trkpt>
      <trkpt lat="42.47111" lon="1.94872">
        <ele>1289.6</ele>
        <time>2019-02-21T15:32:07Z</time>
      </trkpt>
      <trkpt lat="42.47169" lon="1.95018">
        <ele>1281.1</ele>
      </trkpt>
      <trkpt lat="42.47259" lon="1.95066">
        <ele>1284.8</ele>
        <time>2019-02-21T15:32:07Z</time>
      </trkpt>
      <trkpt lat="42.4733" lon="1.95132">
        <ele>1276</ele>
      </trkpt>
      <trkpt lat="42.47405" lon="1.95118">
        <ele>1283.7</ele>
      </trkpt>
      <trkpt lat="42.47492" lon="1.95123">
        <ele>1292</ele>
        <time>2019-02-21T15:32:07Z</time>
      </trkpt>
      <trkpt lat="42.47559" lon="1.95149">
        <ele>1292</ele>
      </trkpt>
      <trkpt lat="42.47635" lon="1.95123">
        <ele>1296.6</ele>
      </trkpt>
      <trkpt lat="42.47672" lon="1.95106">
        <ele>1297.6</ele>
      </trkpt>
      <trkpt lat="42.47709" lon="1.95109">
        <ele>1299.9</ele>
      </trkpt>
      <trkpt lat="42.47752" lon="1.95164">
        <ele>1303</ele>
      </trkpt>
      <trkpt lat="42.47815" lon="1.95282">
        <ele>1312.4</ele>
        <time>2019-02-21T15:32:07Z</time>
      </trkpt>
      <trkpt lat="42.47822" lon="1.95314">
        <ele>1315.9</ele>
      </trkpt>
      <trkpt lat="42.47837" lon="1.95467">
        <ele>1321.3</ele>
      </trkpt>
      <trkpt lat="42.47905" lon="1.95587">
        <ele>1332.4</ele>
      </trkpt>
      <trkpt lat="42.47919" lon="1.95632">
        <ele>1334</ele>
        <time>2019-02-21T15:32:07Z</time>
      </trkpt>
      <trkpt lat="42.47933" lon="1.95674">
        <ele>1335.7</ele>
      </trkpt>
      <trkpt lat="42.47981" lon="1.95756">
        <ele>1338.3</ele>
      </trkpt>
      <trkpt lat="42.48028" lon="1.95817">
        <ele>1338.5</ele>
      </trkpt>
      <trkpt lat="42.48168" lon="1.95891">
        <ele>1354.9</ele>
        <time>2019-02-21T15:32:07Z</time>
      </trkpt>
      <trkpt lat="42.48229" lon="1.95969">
        <ele>1350</ele>
      </trkpt>
      <trkpt lat="42.48254" lon="1.95994">
        <ele>1348.5</ele>
      </trkpt>
      <trkpt lat="42.48306" lon="1.96001">
        <ele>1351</ele>
        <time>2019-02-21T15:32:07Z</time>
      </trkpt>
      <trkpt lat="42.48365" lon="1.96073">
        <ele>1348</ele>
      </trkpt>
      <trkpt lat="42.4843" lon="1.96161">
        <ele>1346.9</ele>
      </trkpt>
      <trkpt lat="42.48497" lon="1.96247">
        <ele>1348.9</ele>
        <time>2019-02-21T15:32:07Z</time>
      </trkpt>
      <trkpt lat="42.48552" lon="1.9632">
        <ele>1351</ele>
      </trkpt>
      <trkpt lat="42.486" lon="1.96379">
        <ele>1353.4</ele>
      </trkpt>
      <trkpt lat="42.48637" lon="1.96433">
        <ele>1358.9</ele>
      </trkpt>
      <trkpt lat="42.48631" lon="1.96501">
        <ele>1365.4</ele>
      </trkpt>
      <trkpt lat="42.48569" lon="1.96547">
        <ele>1359.1</ele>
      </trkpt>
      <trkpt lat="42.48508" lon="1.96621">
        <ele>1362.4</ele>
      </trkpt>
      <trkpt lat="42.48455" lon="1.96618">
        <ele>1358</ele>
      </trkpt>
      <trkpt lat="42.48406" lon="1.96627">
        <ele>1357.7</ele>
        <time>2019-02-21T15:32:07Z</time>
      </trkpt>
      <trkpt lat="42.48325" lon="1.96641">
        <ele>1359.8</ele>
      </trkpt>
      <trkpt lat="42.48263" lon="1.96658">
        <ele>1363.4</ele>
      </trkpt>
      <trkpt lat="42.48195" lon="1.96649">
        <ele>1364.5</ele>
      </trkpt>
      <trkpt lat="42.48135" lon="1.9663">
        <ele>1365.5</ele>
      </trkpt>
      <trkpt lat="42.48063" lon="1.96579">
        <ele>1366.2</ele>
      </trkpt>
      <trkpt lat="42.48039" lon="1.96519">
        <ele>1364.5</ele>
      </trkpt>
      <trkpt lat="42.48021" lon="1.9651">
        <ele>1366.9</ele>
      </trkpt>
      <trkpt lat="42.48003" lon="1.96513">
        <ele>1370.2</ele>
      </trkpt>
      <trkpt lat="42.47999" lon="1.96535">
        <ele>1372.2</ele>
        <time>2019-02-21T15:32:07Z</time>
      </trkpt>
      <trkpt lat="42.48006" lon="1.96583">
        <ele>1374.2</ele>
      </trkpt>
      <trkpt lat="42.48007" lon="1.96677">
        <ele>1380.5</ele>
      </trkpt>
      <trkpt lat="42.48062" lon="1.96783">
        <ele>1388</ele>
      </trkpt>
      <trkpt lat="42.48101" lon="1.96861">
        <ele>1393.9</ele>
      </trkpt>
      <trkpt lat="42.48132" lon="1.96926">
        <ele>1400.7</ele>
      </trkpt>
      <trkpt lat="42.48211" lon="1.96977">
        <ele>1408</ele>
        <time>2019-02-21T15:32:07Z</time>
      </trkpt>
      <trkpt lat="42.48258" lon="1.97022">
        <ele>1412.7</ele>
      </trkpt>
      <trkpt lat="42.483" lon="1.97068">
        <ele>1415.3</ele>
      </trkpt>
      <trkpt lat="42.48348" lon="1.97105">
        <ele>1416.2</ele>
      </trkpt>
      <trkpt lat="42.4844" lon="1.97083">
        <ele>1418</ele>
        <time>2019-02-21T15:32:07Z</time>
      </trkpt>
      <trkpt lat="42.48518" lon="1.97033">
        <ele>1426.6</ele>
      </trkpt>
      <trkpt lat="42.4858" lon="1.96996">
        <ele>1435.8</ele>
      </trkpt>
      <trkpt lat="42.48627" lon="1.96965">
        <ele>1448.6</ele>
      </trkpt>
      <trkpt lat="42.48687" lon="1.96957">
        <ele>1461.1</ele>
      </trkpt>
      <trkpt lat="42.48735" lon="1.96977">
        <ele>1472.9</ele>
      </trkpt>
      <trkpt lat="42.48751" lon="1.97019">
        <ele>1476.1</ele>
      </trkpt>
      <trkpt lat="42.48756" lon="1.9705">
        <ele>1477.3</ele>
        <time>2019-02-21T15:32:07Z</time>
      </trkpt>
      <trkpt lat="42.48774" lon="1.97141">
        <ele>1480.6</ele>
      </trkpt>
      <trkpt lat="42.48802" lon="1.97246">
        <ele>1483.3</ele>
      </trkpt>
      <trkpt lat="42.48854" lon="1.97367">
        <ele>1484.4</ele>
        <time>2019-02-21T15:32:07Z</time>
      </trkpt>
      <trkpt lat="42.48875" lon="1.97443">
        <ele>1483.1</ele>
      </trkpt>
      <trkpt lat="42.48867" lon="1.97532">
        <ele>1484.2</ele>
      </trkpt>
      <trkpt lat="42.48856" lon="1.97593">
        <ele>1485.7</ele>
      </trkpt>
      <trkpt lat="42.4887" lon="1.97627">
        <ele>1487.1</ele>
      </trkpt>
      <trkpt lat="42.48892" lon="1.97613">
        <ele>1490.1</ele>
      </trkpt>
      <trkpt lat="42.48895" lon="1.97547">
        <ele>1488.5</ele>
      </trkpt>
      <trkpt lat="42.48911" lon="1.97511">
        <ele>1488.7</ele>
      </trkpt>
      <trkpt lat="42.48942" lon="1.97478">
        <ele>1490</ele>
      </trkpt>
      <trkpt lat="42.48987" lon="1.97447">
        <ele>1492.3</ele>
      </trkpt>
      <trkpt lat="42.49024" lon="1.9737">
        <ele>1497.5</ele>
      </trkpt>
      <trkpt lat="42.4907" lon="1.97323">
        <ele>1504.8</ele>
      </trkpt>
      <trkpt lat="42.49112" lon="1.97314">
        <ele>1509.2</ele>
      </trkpt>
      <trkpt lat="42.49165" lon="1.97343">
        <ele>1512.7</ele>
        <time>2019-02-21T15:32:07Z</time>
      </trkpt>
      <trkpt lat="42.49215" lon="1.97318">
        <ele>1520.4</ele>
      </trkpt>
      <trkpt lat="42.49248" lon="1.97334">
        <ele>1523.8</ele>
      </trkpt>
      <trkpt lat="42.49274" lon="1.97383">
        <ele>1527</ele>
      </trkpt>
      <trkpt lat="42.49274" lon="1.97556">
        <ele>1534.2</ele>
      </trkpt>
      <trkpt lat="42.49297" lon="1.97666">
        <ele>1533.2</ele>
      </trkpt>
      <trkpt lat="42.49344" lon="1.97728">
        <ele>1533.9</ele>
      </trkpt>
      <trkpt lat="42.49407" lon="1.97736">
        <ele>1543</ele>
        <time>2019-02-21T15:32:07Z</time>
      </trkpt>
      <trkpt lat="42.49439" lon="1.97685">
        <ele>1546.2</ele>
      </trkpt>
      <trkpt lat="42.49477" lon="1.97664">
        <ele>1552.5</ele>
      </trkpt>
      <trkpt lat="42.49552" lon="1.97555">
        <ele>1567.1</ele>
        <time>2019-02-21T15:32:07Z</time>
      </trkpt>
      <trkpt lat="42.49578" lon="1.9757">
        <ele>1574</ele>
      </trkpt>
      <trkpt lat="42.4957" lon="1.97601">
        <ele>1573.7</ele>
      </trkpt>
      <trkpt lat="42.49538" lon="1.97641">
        <ele>1567.1</ele>
      </trkpt>
      <trkpt lat="42.49517" lon="1.97715">
        <ele>1564.6</ele>
      </trkpt>
      <trkpt lat="42.49516" lon="1.97881">
        <ele>1562.5</ele>
        <time>2019-02-21T15:32:07Z</time>
      </trkpt>
      <trkpt lat="42.49535" lon="1.97937">
        <ele>1563.9</ele>
      </trkpt>
      <trkpt lat="42.49558" lon="1.97988">
        <ele>1568.2</ele>
      </trkpt>
      <trkpt lat="42.4954" lon="1.98049">
        <ele>1570.4</ele>
      </trkpt>
      <trkpt lat="42.49517" lon="1.98107">
        <ele>1570.5</ele>
      </trkpt>
      <trkpt lat="42.49532" lon="1.98216">
        <ele>1571.1</ele>
      </trkpt>
      <trkpt lat="42.4952" lon="1.98344">
        <ele>1569.1</ele>
        <time>2019-02-21T15:32:07Z</time>
      </trkpt>
      <trkpt lat="42.49523" lon="1.98428">
        <ele>1570.4</ele>
      </trkpt>
      <trkpt lat="42.49551" lon="1.98502">
        <ele>1572.6</ele>
      </trkpt>
      <trkpt lat="42.49601" lon="1.98566">
        <ele>1580</ele>
      </trkpt>
      <trkpt lat="42.49654" lon="1.98666">
        <ele>1585.8</ele>
      </trkpt>
      <trkpt lat="42.49659" lon="1.98748">
        <ele>1586.6</ele>
        <time>2019-02-21T15:32:07Z</time>
      </trkpt>
      <trkpt lat="42.49678" lon="1.98842">
        <ele>1588.9</ele>
      </trkpt>
      <trkpt lat="42.49693" lon="1.98957">
        <ele>1592.7</ele>
      </trkpt>
      <trkpt lat="42.49757" lon="1.991">
        <ele>1601.2</ele>
        <time>2019-02-21T15:32:07Z</time>
      </trkpt>
      <trkpt lat="42.49761" lon="1.99132">
        <ele>1601.3</ele>
      </trkpt>
      <trkpt lat="42.49777" lon="1.99141">
        <ele>1604.4</ele>
      </trkpt>
      <trkpt lat="42.49852" lon="1.99395">
        <ele>1608.1</ele>
        <time>2019-02-21T15:32:07Z</time>
      </trkpt>
      <trkpt lat="42.49895" lon="1.9955">
        <ele>1608.5</ele>
      </trkpt>
      <trkpt lat="42.49913" lon="1.9966">
        <ele>1609.6</ele>
      </trkpt>
      <trkpt lat="42.49919" lon="1.99777">
        <ele>1611.2</ele>
        <time>2019-02-21T15:32:07Z</time>
      </trkpt>
      <trkpt lat="42.49908" lon="1.99827">
        <ele>1610.8</ele>
      </trkpt>
      <trkpt lat="42.49876" lon="1.99907">
        <ele>1612.4</ele>
      </trkpt>
      <trkpt lat="42.49847" lon="1.99952">
        <ele>1613.6</ele>
      </trkpt>
      <trkpt lat="42.49822" lon="1.99988">
        <ele>1613.3</ele>
      </trkpt>
      <trkpt lat="42.49798" lon="2.00087">
        <ele>1620.7</ele>
      </trkpt>
      <trkpt lat="42.49821" lon="2.00154">
        <ele>1628.8</ele>
        <time>2019-02-21T15:32:07Z</time>
      </trkpt>
      <trkpt lat="42.49825" lon="2.0025">
        <ele>1631.1</ele>
      </trkpt>
      <trkpt lat="42.49867" lon="2.00402">
        <ele>1632.4</ele>
      </trkpt>
      <trkpt lat="42.49932" lon="2.00478">
        <ele>1635.1</ele>
      </trkpt>
      <trkpt lat="42.49959" lon="2.00518">
        <ele>1637.2</ele>
        <time>2019-02-21T15:32:07Z</time>
      </trkpt>
      <trkpt lat="42.49984" lon="2.00592">
        <ele>1636.6</ele>
      </trkpt>
      <trkpt lat="42.50004" lon="2.00708">
        <ele>1633.2</ele>
      </trkpt>
      <trkpt lat="42.50031" lon="2.00856">
        <ele>1633.3</ele>
        <time>2019-02-21T15:32:07Z</time>
      </trkpt>
      <trkpt lat="42.50031" lon="2.01016">
        <ele>1627.9</ele>
      </trkpt>
      <trkpt lat="42.50086" lon="2.01123">
        <ele>1637</ele>
      </trkpt>
      <trkpt lat="42.50082" lon="2.01156">
        <ele>1636.7</ele>
      </trkpt>
      <trkpt lat="42.50059" lon="2.01178">
        <ele>1634.2</ele>
      </trkpt>
      <trkpt lat="42.4998" lon="2.01174">
        <ele>1624.8</ele>
      </trkpt>
      <trkpt lat="42.49902" lon="2.01243">
        <ele>1633.7</ele>
        <time>2019-02-21T15:32:07Z</time>
      </trkpt>
      <trkpt lat="42.49846" lon="2.01282">
        <ele>1634.7</ele>
      </trkpt>
      <trkpt lat="42.49804" lon="2.01353">
        <ele>1641.1</ele>
      </trkpt>
      <trkpt lat="42.49768" lon="2.01372">
        <ele>1640.3</ele>
      </trkpt>
      <trkpt lat="42.49773" lon="2.01396">
        <ele>1642.4</ele>
      </trkpt>
      <trkpt lat="42.49748" lon="2.01483">
        <ele>1645.3</ele>
        <time>2019-02-21T15:32:07Z</time>
      </trkpt>
      <trkpt lat="42.49761" lon="2.01624">
        <ele>1648.1</ele>
      </trkpt>
      <trkpt lat="42.49727" lon="2.01769">
        <ele>1634.1</ele>
        <time>2019-02-21T15:32:07Z</time>
      </trkpt>
      <trkpt lat="42.49742" lon="2.01897">
        <ele>1629</ele>
      </trkpt>
      <trkpt lat="42.4974" lon="2.02034">
        <ele>1625.1</ele>
      </trkpt>
      <trkpt lat="42.49782" lon="2.02142">
        <ele>1621.1</ele>
      </trkpt>
      <trkpt lat="42.49797" lon="2.02213">
        <ele>1614.7</ele>
        <time>2019-02-21T15:32:07Z</time>
      </trkpt>
      <trkpt lat="42.49808" lon="2.02767">
        <ele>1587</ele>
        <time>2019-02-21T15:32:07Z</time>
      </trkpt>
      <trkpt lat="42.49788" lon="2.02822">
        <ele>1584.2</ele>
      </trkpt>
      <trkpt lat="42.49717" lon="2.02845">
        <ele>1580.7</ele>
      </trkpt>
      <trkpt lat="42.49691" lon="2.02902">
        <ele>1588.1</ele>
      </trkpt>
      <trkpt lat="42.49684" lon="2.0305">
        <ele>1602.1</ele>
      </trkpt>
      <trkpt lat="42.49684" lon="2.03133">
        <ele>1603.7</ele>
      </trkpt>
      <trkpt lat="42.49685" lon="2.0315">
        <ele>1604</ele>
      </trkpt>
      <trkpt lat="42.49698" lon="2.03144">
        <ele>1606.8</ele>
        <time>2019-02-21T15:32:07Z</time>
      </trkpt>
      <trkpt lat="42.49709" lon="2.03113">
        <ele>1609.1</ele>
      </trkpt>
      <trkpt lat="42.49715" lon="2.03019">
        <ele>1605.5</ele>
      </trkpt>
      <trkpt lat="42.4972" lon="2.0299">
        <ele>1603.1</ele>
      </trkpt>
      <trkpt lat="42.49763" lon="2.02966">
        <ele>1603</ele>
        <time>2019-02-21T15:32:07Z</time>
      </trkpt>
      <trkpt lat="42.49834" lon="2.0296">
        <ele>1602.8</ele>
      </trkpt>
      <trkpt lat="42.49895" lon="2.02962">
        <ele>1603.5</ele>
        <time>2019-02-21T15:32:07Z</time>
      </trkpt>
      <trkpt lat="42.49912" lon="2.02982">
        <ele>1606.8</ele>
      </trkpt>
      <trkpt lat="42.49897" lon="2.03006">
        <ele>1611.2</ele>
      </trkpt>
      <trkpt lat="42.49867" lon="2.03002">
        <ele>1610.3</ele>
      </trkpt>
      <trkpt lat="42.49847" lon="2.03008">
        <ele>1611.3</ele>
      </trkpt>
      <trkpt lat="42.49828" lon="2.03044">
        <ele>1616.6</ele>
      </trkpt>
      <trkpt lat="42.49812" lon="2.03098">
        <ele>1622.6</ele>
        <time>2019-02-21T15:32:07Z</time>
      </trkpt>
      <trkpt lat="42.49986" lon="2.03372">
        <ele>1647.8</ele>
        <time>2019-02-21T15:32:07Z</time>
      </trkpt>
      <trkpt lat="42.50055" lon="2.03406">
        <ele>1661.3</ele>
      </trkpt>
      <trkpt lat="42.50098" lon="2.03458">
        <ele>1670.5</ele>
        <time>2019-02-21T15:32:07Z</time>
      </trkpt>
      <trkpt lat="42.50114" lon="2.03559">
        <ele>1676.4</ele>
      </trkpt>
      <trkpt lat="42.50069" lon="2.03953">
        <ele>1679.9</ele>
        <time>2019-02-21T15:32:07Z</time>
      </trkpt>
      <trkpt lat="42.50083" lon="2.04049">
        <ele>1681</ele>
        <time>2019-02-21T15:32:07Z</time>
      </trkpt>
      <trkpt lat="42.50139" lon="2.0413">
        <ele>1693.3</ele>
        <time>2019-02-21T15:32:07Z</time>
      </trkpt>
      <trkpt lat="42.50164" lon="2.04255">
        <ele>1706.4</ele>
      </trkpt>
      <trkpt lat="42.50164" lon="2.04388">
        <ele>1710.6</ele>
        <time>2019-02-21T15:32:07Z</time>
      </trkpt>
      <trkpt lat="42.50138" lon="2.04542">
        <ele>1712.9</ele>
      </trkpt>
      <trkpt lat="42.5014" lon="2.04694">
        <ele>1719.7</ele>
        <time>2019-02-21T15:32:07Z</time>
      </trkpt>
      <trkpt lat="42.50145" lon="2.04723">
        <ele>1718.5</ele>
      </trkpt>
      <trkpt lat="42.50168" lon="2.04716">
        <ele>1724.5</ele>
      </trkpt>
      <trkpt lat="42.50171" lon="2.04659">
        <ele>1729.2</ele>
      </trkpt>
      <trkpt lat="42.50183" lon="2.04582">
        <ele>1726.7</ele>
      </trkpt>
      <trkpt lat="42.50227" lon="2.04532">
        <ele>1733.1</ele>
        <time>2019-02-21T15:32:07Z</time>
      </trkpt>
      <trkpt lat="42.50244" lon="2.04456">
        <ele>1731</ele>
      </trkpt>
      <trkpt lat="42.50297" lon="2.04404">
        <ele>1738.5</ele>
      </trkpt>
      <trkpt lat="42.50316" lon="2.04338">
        <ele>1738.9</ele>
      </trkpt>
      <trkpt lat="42.50309" lon="2.04273">
        <ele>1735.3</ele>
        <time>2019-02-21T15:32:07Z</time>
      </trkpt>
      <trkpt lat="42.50327" lon="2.04219">
        <ele>1737.8</ele>
      </trkpt>
      <trkpt lat="42.50376" lon="2.04192">
        <ele>1747.9</ele>
      </trkpt>
      <trkpt lat="42.50381" lon="2.04099">
        <ele>1750</ele>
        <time>2019-02-21T15:32:07Z</time>
      </trkpt>
      <trkpt lat="42.50378" lon="2.03888">
        <ele>1762.7</ele>
        <time>2019-02-21T15:32:07Z</time>
      </trkpt>
      <trkpt lat="42.50428" lon="2.03916">
        <ele>1773.8</ele>
      </trkpt>
      <trkpt lat="42.50496" lon="2.04044">
        <ele>1774.6</ele>
        <time>2019-02-21T15:32:07Z</time>
      </trkpt>
      <trkpt lat="42.50511" lon="2.0419">
        <ele>1778.4</ele>
        <time>2019-02-21T15:32:07Z</time>
      </trkpt>
      <trkpt lat="42.50527" lon="2.0437">
        <ele>1783.1</ele>
      </trkpt>
      <trkpt lat="42.50513" lon="2.04472">
        <ele>1782.8</ele>
      </trkpt>
      <trkpt lat="42.50627" lon="2.04564">
        <ele>1793.4</ele>
      </trkpt>
      <trkpt lat="42.50706" lon="2.04609">
        <ele>1790.5</ele>
        <time>2019-02-21T15:32:07Z</time>
      </trkpt>
      <trkpt lat="42.50797" lon="2.04588">
        <ele>1805.5</ele>
        <time>2019-02-21T15:32:07Z</time>
      </trkpt>
      <trkpt lat="42.50878" lon="2.04594">
        <ele>1820.4</ele>
      </trkpt>
      <trkpt lat="42.50926" lon="2.04662">
        <ele>1817.1</ele>
      </trkpt>
      <trkpt lat="42.51032" lon="2.04698">
        <ele>1818</ele>
        <time>2019-02-21T15:32:07Z</time>
      </trkpt>
      <trkpt lat="42.51076" lon="2.04639">
        <ele>1823</ele>
      </trkpt>
      <trkpt lat="42.51142" lon="2.04625">
        <ele>1829.6</ele>
      </trkpt>
      <trkpt lat="42.51207" lon="2.04607">
        <ele>1837.7</ele>
        <time>2019-02-21T15:32:07Z</time>
      </trkpt>
      <trkpt lat="42.51217" lon="2.04675">
        <ele>1844</ele>
      </trkpt>
      <trkpt lat="42.51158" lon="2.04847">
        <ele>1847.3</ele>
        <time>2019-02-21T15:32:07Z</time>
      </trkpt>
      <trkpt lat="42.51156" lon="2.04985">
        <ele>1848.1</ele>
      </trkpt>
      <trkpt lat="42.51181" lon="2.05045">
        <ele>1839.8</ele>
      </trkpt>
      <trkpt lat="42.5119" lon="2.05086">
        <ele>1832.2</ele>
      </trkpt>
      <trkpt lat="42.51221" lon="2.05058">
        <ele>1833.8</ele>
        <time>2019-02-21T15:32:07Z</time>
      </trkpt>
      <trkpt lat="42.51248" lon="2.05079">
        <ele>1827.1</ele>
      </trkpt>
      <trkpt lat="42.51397" lon="2.05023">
        <ele>1832.5</ele>
      </trkpt>
      <trkpt lat="42.51509" lon="2.05066">
        <ele>1839.4</ele>
        <time>2019-02-21T15:32:07Z</time>
      </trkpt>
      <trkpt lat="42.51533" lon="2.05148">
        <ele>1832.8</ele>
        <time>2019-02-21T15:32:07Z</time>
      </trkpt>
      <trkpt lat="42.51526" lon="2.05254">
        <ele>1823.5</ele>
      </trkpt>
      <trkpt lat="42.51512" lon="2.05297">
        <ele>1821.1</ele>
      </trkpt>
      <trkpt lat="42.5153" lon="2.0552">
        <ele>1813</ele>
        <time>2019-02-21T15:32:07Z</time>
      </trkpt>
      <trkpt lat="42.51488" lon="2.05723">
        <ele>1800.8</ele>
        <time>2019-02-21T15:32:07Z</time>
      </trkpt>
      <trkpt lat="42.51461" lon="2.05968">
        <ele>1789.8</ele>
        <time>2019-02-21T15:32:07Z</time>
      </trkpt>
      <trkpt lat="42.51454" lon="2.06149">
        <ele>1786</ele>
      </trkpt>
      <trkpt lat="42.51416" lon="2.06263">
        <ele>1783.6</ele>
        <time>2019-02-21T15:32:07Z</time>
      </trkpt>
      <trkpt lat="42.51391" lon="2.06353">
        <ele>1779.8</ele>
      </trkpt>
      <trkpt lat="42.51384" lon="2.06419">
        <ele>1775</ele>
      </trkpt>
      <trkpt lat="42.51413" lon="2.06494">
        <ele>1768.5</ele>
      </trkpt>
      <trkpt lat="42.51451" lon="2.06524">
        <ele>1761.9</ele>
        <time>2019-02-21T15:32:07Z</time>
      </trkpt>
      <trkpt lat="42.51528" lon="2.06608">
        <ele>1752.6</ele>
      </trkpt>
      <trkpt lat="42.5156" lon="2.06677">
        <ele>1749.8</ele>
        <time>2019-02-21T15:32:07Z</time>
      </trkpt>
      <trkpt lat="42.51554" lon="2.0687">
        <ele>1747.9</ele>
        <time>2019-02-21T15:32:07Z</time>
      </trkpt>
      <trkpt lat="42.51541" lon="2.07054">
        <ele>1748.9</ele>
        <time>2019-02-21T15:32:07Z</time>
      </trkpt>
      <trkpt lat="42.51484" lon="2.07174">
        <ele>1749.6</ele>
        <time>2019-02-21T15:32:07Z</time>
      </trkpt>
      <trkpt lat="42.51482" lon="2.07175">
        <ele>1749.3</ele>
        <time>2019-02-21T15:32:07Z</time>
      </trkpt>
      <trkpt lat="42.51478" lon="2.07287">
        <ele>1744.5</ele>
        <time>2019-02-21T15:32:07Z</time>
      </trkpt>
      <trkpt lat="42.51519" lon="2.0745">
        <ele>1739</ele>
        <time>2019-02-21T15:32:07Z</time>
      </trkpt>
      <trkpt lat="42.51523" lon="2.0761">
        <ele>1738.8</ele>
        <time>2019-02-21T15:32:07Z</time>
      </trkpt>
      <trkpt lat="42.51463" lon="2.07725">
        <ele>1731.7</ele>
        <time>2019-02-21T15:32:07Z</time>
      </trkpt>
      <trkpt lat="42.51377" lon="2.0788">
        <ele>1729.4</ele>
        <time>2019-02-21T15:32:07Z</time>
      </trkpt>
      <trkpt lat="42.5128" lon="2.08092">
        <ele>1723.6</ele>
        <time>2019-02-21T15:32:07Z</time>
      </trkpt>
      <trkpt lat="42.51192" lon="2.08328">
        <ele>1715.9</ele>
        <time>2019-02-21T15:32:07Z</time>
      </trkpt>
      <trkpt lat="42.51114" lon="2.08527">
        <ele>1706.9</ele>
        <time>2019-02-21T15:32:07Z</time>
      </trkpt>
      <trkpt lat="42.51132" lon="2.08796">
        <ele>1691.5</ele>
        <time>2019-02-21T15:32:07Z</time>
      </trkpt>
      <trkpt lat="42.51108" lon="2.09015">
        <ele>1685.5</ele>
        <time>2019-02-21T15:32:07Z</time>
      </trkpt>
      <trkpt lat="42.51116" lon="2.09127">
        <ele>1683</ele>
        <time>2019-02-21T15:32:07Z</time>
      </trkpt>
      <trkpt lat="42.51091" lon="2.09339">
        <ele>1676.8</ele>
        <time>2019-02-21T15:32:07Z</time>
      </trkpt>
      <trkpt lat="42.51098" lon="2.09581">
        <ele>1672.3</ele>
        <time>2019-02-21T15:32:07Z</time>
      </trkpt>
      <trkpt lat="42.51167" lon="2.09824">
        <ele>1666.3</ele>
        <time>2019-02-21T15:32:07Z</time>
      </trkpt>
      <trkpt lat="42.51202" lon="2.09924">
        <ele>1659.5</ele>
        <time>2019-02-21T15:32:07Z</time>
      </trkpt>
      <trkpt lat="42.51209" lon="2.10045">
        <ele>1659.7</ele>
        <time>2019-02-21T15:32:07Z</time>
      </trkpt>
      <trkpt lat="42.51209" lon="2.10045">
        <ele>1659.7</ele>
        <time>2019-02-21T15:32:07Z</time>
      </trkpt>
      <trkpt lat="42.51287" lon="2.10217">
        <ele>1652.3</ele>
        <time>2019-02-21T15:32:07Z</time>
      </trkpt>
      <trkpt lat="42.51309" lon="2.10361">
        <ele>1647.9</ele>
        <time>2019-02-21T15:32:07Z</time>
      </trkpt>
      <trkpt lat="42.51341" lon="2.10509">
        <ele>1640.4</ele>
        <time>2019-02-21T15:32:07Z</time>
      </trkpt>
      <trkpt lat="42.51406" lon="2.10669">
        <ele>1633.4</ele>
        <time>2019-02-21T15:32:07Z</time>
      </trkpt>
      <trkpt lat="42.51447" lon="2.10775">
        <ele>1639.4</ele>
        <time>2019-02-21T15:32:07Z</time>
      </trkpt>
      <trkpt lat="42.51358" lon="2.10923">
        <ele>1622.5</ele>
        <time>2019-02-21T15:32:07Z</time>
      </trkpt>
      <trkpt lat="42.51316" lon="2.10993">
        <ele>1614.2</ele>
        <time>2019-02-21T15:32:07Z</time>
      </trkpt>
      <trkpt lat="42.51239" lon="2.11016">
        <ele>1627.4</ele>
        <time>2019-02-21T15:32:07Z</time>
      </trkpt>
      <trkpt lat="42.51209" lon="2.11049">
        <ele>1622.8</ele>
        <time>2019-02-21T15:32:07Z</time>
      </trkpt>
      <trkpt lat="42.51175" lon="2.11212">
        <ele>1604.5</ele>
        <time>2019-02-21T15:32:07Z</time>
      </trkpt>
      <trkpt lat="42.51165" lon="2.11302">
        <ele>1596.6</ele>
        <time>2019-02-21T15:32:07Z</time>
      </trkpt>
      <trkpt lat="42.51136" lon="2.11357">
        <ele>1595.2</ele>
        <time>2019-02-21T15:32:07Z</time>
      </trkpt>
      <trkpt lat="42.51089" lon="2.11399">
        <ele>1597.5</ele>
        <time>2019-02-21T15:32:07Z</time>
      </trkpt>
      <trkpt lat="42.51022" lon="2.1143">
        <ele>1597.8</ele>
        <time>2019-02-21T15:32:07Z</time>
      </trkpt>
      <trkpt lat="42.50941" lon="2.11455">
        <ele>1597.5</ele>
        <time>2019-02-21T15:32:07Z</time>
      </trkpt>
      <trkpt lat="42.50881" lon="2.11485">
        <ele>1593</ele>
        <time>2019-02-21T15:32:07Z</time>
      </trkpt>
      <trkpt lat="42.50826" lon="2.11532">
        <ele>1585.2</ele>
        <time>2019-02-21T15:32:07Z</time>
      </trkpt>
      <trkpt lat="42.50756" lon="2.11548">
        <ele>1581.4</ele>
        <time>2019-02-21T15:32:07Z</time>
      </trkpt>
      <trkpt lat="42.50728" lon="2.11546">
        <ele>1580.9</ele>
        <time>2019-02-21T15:32:07Z</time>
      </trkpt>
      <trkpt lat="42.5072" lon="2.11566">
        <ele>1579.5</ele>
        <time>2019-02-21T15:32:07Z</time>
      </trkpt>
      <trkpt lat="42.50738" lon="2.1159">
        <ele>1578.1</ele>
        <time>2019-02-21T15:32:07Z</time>
      </trkpt>
      <trkpt lat="42.50761" lon="2.116">
        <ele>1578</ele>
        <time>2019-02-21T15:32:07Z</time>
      </trkpt>
      <trkpt lat="42.50795" lon="2.11615">
        <ele>1579.8</ele>
        <time>2019-02-21T15:32:07Z</time>
      </trkpt>
      <trkpt lat="42.50844" lon="2.1163">
        <ele>1585</ele>
        <time>2019-02-21T15:32:07Z</time>
      </trkpt>
      <trkpt lat="42.50866" lon="2.11653">
        <ele>1588.3</ele>
        <time>2019-02-21T15:32:07Z</time>
      </trkpt>
      <trkpt lat="42.50867" lon="2.11674">
        <ele>1588.8</ele>
        <time>2019-02-21T15:32:07Z</time>
      </trkpt>
      <trkpt lat="42.50863" lon="2.11688">
        <ele>1589.1</ele>
        <time>2019-02-21T15:32:07Z</time>
      </trkpt>
      <trkpt lat="42.50835" lon="2.11751">
        <ele>1589.3</ele>
        <time>2019-02-21T15:32:07Z</time>
      </trkpt>
      <trkpt lat="42.50797" lon="2.11807">
        <ele>1584.8</ele>
        <time>2019-02-21T15:32:07Z</time>
      </trkpt>
      <trkpt lat="42.50735" lon="2.11838">
        <ele>1574.7</ele>
        <time>2019-02-21T15:32:07Z</time>
      </trkpt>
      <trkpt lat="42.50632" lon="2.11887">
        <ele>1560.7</ele>
        <time>2019-02-21T15:32:07Z</time>
      </trkpt>
      <trkpt lat="42.50609" lon="2.11925">
        <ele>1559.7</ele>
        <time>2019-02-21T15:32:07Z</time>
      </trkpt>
      <trkpt lat="42.50569" lon="2.11937">
        <ele>1553.7</ele>
        <time>2019-02-21T15:32:07Z</time>
      </trkpt>
      <trkpt lat="42.50546" lon="2.11935">
        <ele>1549.9</ele>
        <time>2019-02-21T15:32:07Z</time>
      </trkpt>
      <trkpt lat="42.50507" lon="2.11853">
        <ele>1541.8</ele>
        <time>2019-02-21T15:32:07Z</time>
      </trkpt>
      <trkpt lat="42.50479" lon="2.11771">
        <ele>1542.9</ele>
        <time>2019-02-21T15:32:07Z</time>
      </trkpt>
      <trkpt lat="42.50462" lon="2.11723">
        <ele>1542</ele>
        <time>2019-02-21T15:32:07Z</time>
      </trkpt>
      <trkpt lat="42.50445" lon="2.11696">
        <ele>1539.7</ele>
        <time>2019-02-21T15:32:07Z</time>
      </trkpt>
      <trkpt lat="42.50388" lon="2.11667">
        <ele>1531.6</ele>
        <time>2019-02-21T15:32:07Z</time>
      </trkpt>
      <trkpt lat="42.50348" lon="2.11654">
        <ele>1528</ele>
        <time>2019-02-21T15:32:07Z</time>
      </trkpt>
      <trkpt lat="42.5032" lon="2.1164">
        <ele>1526.8</ele>
        <time>2019-02-21T15:32:07Z</time>
      </trkpt>
      <trkpt lat="42.50251" lon="2.11591">
        <ele>1527.1</ele>
        <time>2019-02-21T15:32:07Z</time>
      </trkpt>
      <trkpt lat="42.5023" lon="2.11564">
        <ele>1525.7</ele>
        <time>2019-02-21T15:32:07Z</time>
      </trkpt>
      <trkpt lat="42.50216" lon="2.11525">
        <ele>1524.8</ele>
        <time>2019-02-21T15:32:07Z</time>
      </trkpt>
      <trkpt lat="42.5019" lon="2.11528">
        <ele>1520.6</ele>
        <time>2019-02-21T15:32:07Z</time>
      </trkpt>
      <trkpt lat="42.50173" lon="2.11563">
        <ele>1516.7</ele>
        <time>2019-02-21T15:32:07Z</time>
      </trkpt>
      <trkpt lat="42.50139" lon="2.11579">
        <ele>1511.6</ele>
        <time>2019-02-21T15:32:07Z</time>
      </trkpt>
      <trkpt lat="42.50113" lon="2.11575">
        <ele>1508.4</ele>
        <time>2019-02-21T15:32:07Z</time>
      </trkpt>
      <trkpt lat="42.50083" lon="2.11532">
        <ele>1507.1</ele>
        <time>2019-02-21T15:32:07Z</time>
      </trkpt>
      <trkpt lat="42.5006" lon="2.11488">
        <ele>1506.8</ele>
        <time>2019-02-21T15:32:07Z</time>
      </trkpt>
      <trkpt lat="42.50061" lon="2.11431">
        <ele>1508.2</ele>
        <time>2019-02-21T15:32:07Z</time>
      </trkpt>
      <trkpt lat="42.50039" lon="2.11342">
        <ele>1505.8</ele>
        <time>2019-02-21T15:32:07Z</time>
      </trkpt>
      <trkpt lat="42.50037" lon="2.11258">
        <ele>1504.1</ele>
        <time>2019-02-21T15:32:07Z</time>
      </trkpt>
      <trkpt lat="42.50059" lon="2.11224">
        <ele>1506.8</ele>
        <time>2019-02-21T15:32:07Z</time>
      </trkpt>
      <trkpt lat="42.50089" lon="2.11152">
        <ele>1512.3</ele>
        <time>2019-02-21T15:32:07Z</time>
      </trkpt>
      <trkpt lat="42.50096" lon="2.11057">
        <ele>1515.4</ele>
        <time>2019-02-21T15:32:07Z</time>
      </trkpt>
      <trkpt lat="42.5009" lon="2.10987">
        <ele>1515.4</ele>
        <time>2019-02-21T15:32:07Z</time>
      </trkpt>
      <trkpt lat="42.50098" lon="2.10842">
        <ele>1521.3</ele>
        <time>2019-02-21T15:32:07Z</time>
      </trkpt>
      <trkpt lat="42.50098" lon="2.10775">
        <ele>1525</ele>
        <time>2019-02-21T15:32:07Z</time>
      </trkpt>
      <trkpt lat="42.50086" lon="2.10709">
        <ele>1526.3</ele>
        <time>2019-02-21T15:32:07Z</time>
      </trkpt>
      <trkpt lat="42.50079" lon="2.1061">
        <ele>1528.7</ele>
        <time>2019-02-21T15:32:07Z</time>
      </trkpt>
      <trkpt lat="42.50083" lon="2.10509">
        <ele>1531.8</ele>
        <time>2019-02-21T15:32:07Z</time>
      </trkpt>
      <trkpt lat="42.50089" lon="2.10429">
        <ele>1536.1</ele>
        <time>2019-02-21T15:32:07Z</time>
      </trkpt>
      <trkpt lat="42.501" lon="2.10353">
        <ele>1540.7</ele>
        <time>2019-02-21T15:32:07Z</time>
      </trkpt>
      <trkpt lat="42.50082" lon="2.10315">
        <ele>1540</ele>
        <time>2019-02-21T15:32:07Z</time>
      </trkpt>
      <trkpt lat="42.50057" lon="2.10302">
        <ele>1539.2</ele>
        <time>2019-02-21T15:32:07Z</time>
      </trkpt>
      <trkpt lat="42.50013" lon="2.10302">
        <ele>1536.1</ele>
        <time>2019-02-21T15:32:07Z</time>
      </trkpt>
      <trkpt lat="42.49982" lon="2.10282">
        <ele>1537.8</ele>
        <time>2019-02-21T15:32:07Z</time>
      </trkpt>
      <trkpt lat="42.49957" lon="2.10191">
        <ele>1548.6</ele>
        <time>2019-02-21T15:32:07Z</time>
      </trkpt>
      <trkpt lat="42.49941" lon="2.1012">
        <ele>1553.4</ele>
        <time>2019-02-21T15:32:07Z</time>
      </trkpt>
      <trkpt lat="42.49933" lon="2.10043">
        <ele>1557.9</ele>
        <time>2019-02-21T15:32:07Z</time>
      </trkpt>
      <trkpt lat="42.49925" lon="2.09988">
        <ele>1561.1</ele>
        <time>2019-02-21T15:32:07Z</time>
      </trkpt>
      <trkpt lat="42.49891" lon="2.0991">
        <ele>1562.3</ele>
        <time>2019-02-21T15:32:07Z</time>
      </trkpt>
      <trkpt lat="42.49875" lon="2.09856">
        <ele>1564.9</ele>
        <time>2019-02-21T15:32:07Z</time>
      </trkpt>
      <trkpt lat="42.49862" lon="2.09786">
        <ele>1567.6</ele>
        <time>2019-02-21T15:32:07Z</time>
      </trkpt>
      <trkpt lat="42.4985" lon="2.09678">
        <ele>1571</ele>
        <time>2019-02-21T15:32:07Z</time>
      </trkpt>
      <trkpt lat="42.49851" lon="2.09611">
        <ele>1572.2</ele>
        <time>2019-02-21T15:32:07Z</time>
      </trkpt>
      <trkpt lat="42.49875" lon="2.09434">
        <ele>1580.3</ele>
        <time>2019-02-21T15:32:07Z</time>
      </trkpt>
      <trkpt lat="42.49826" lon="2.09404">
        <ele>1577.9</ele>
        <time>2019-02-21T15:32:07Z</time>
      </trkpt>
      <trkpt lat="42.49774" lon="2.09407">
        <ele>1576.4</ele>
        <time>2019-02-21T15:32:07Z</time>
      </trkpt>
      <trkpt lat="42.4973" lon="2.09419">
        <ele>1575.6</ele>
        <time>2019-02-21T15:32:07Z</time>
      </trkpt>
      <trkpt lat="42.49692" lon="2.09392">
        <ele>1578.5</ele>
        <time>2019-02-21T15:32:07Z</time>
      </trkpt>
      <trkpt lat="42.49669" lon="2.09301">
        <ele>1582.8</ele>
        <time>2019-02-21T15:32:07Z</time>
      </trkpt>
      <trkpt lat="42.49651" lon="2.09241">
        <ele>1583.8</ele>
        <time>2019-02-21T15:32:07Z</time>
      </trkpt>
      <trkpt lat="42.49566" lon="2.09238">
        <ele>1581.4</ele>
        <time>2019-02-21T15:32:07Z</time>
      </trkpt>
      <trkpt lat="42.49505" lon="2.09285">
        <ele>1580.9</ele>
        <time>2019-02-21T15:32:07Z</time>
      </trkpt>
      <trkpt lat="42.49471" lon="2.09355">
        <ele>1584</ele>
        <time>2019-02-21T15:32:07Z</time>
      </trkpt>
      <trkpt lat="42.49448" lon="2.09389">
        <ele>1585.9</ele>
        <time>2019-02-21T15:32:07Z</time>
      </trkpt>
      <trkpt lat="42.49409" lon="2.09417">
        <ele>1589.4</ele>
        <time>2019-02-21T15:32:07Z</time>
      </trkpt>
      <trkpt lat="42.49356" lon="2.09411">
        <ele>1592.6</ele>
        <time>2019-02-21T15:32:07Z</time>
      </trkpt>
      <trkpt lat="42.49266" lon="2.09363">
        <ele>1597.9</ele>
        <time>2019-02-21T15:32:07Z</time>
      </trkpt>
      <trkpt lat="42.49205" lon="2.09324">
        <ele>1601.3</ele>
        <time>2019-02-21T15:32:07Z</time>
      </trkpt>
      <trkpt lat="42.49136" lon="2.09333">
        <ele>1604.5</ele>
        <time>2019-02-21T15:32:07Z</time>
      </trkpt>
      <trkpt lat="42.49097" lon="2.09335">
        <ele>1606.3</ele>
        <time>2019-02-21T15:32:07Z</time>
      </trkpt>
      <trkpt lat="42.49054" lon="2.09319">
        <ele>1605.4</ele>
        <time>2019-02-21T15:32:07Z</time>
      </trkpt>
      <trkpt lat="42.4897" lon="2.09287">
        <ele>1602.3</ele>
        <time>2019-02-21T15:32:07Z</time>
      </trkpt>
      <trkpt lat="42.48902" lon="2.09252">
        <ele>1601.4</ele>
        <time>2019-02-21T15:32:07Z</time>
      </trkpt>
      <trkpt lat="42.48876" lon="2.09199">
        <ele>1601.4</ele>
        <time>2019-02-21T15:32:07Z</time>
      </trkpt>
      <trkpt lat="42.48837" lon="2.09094">
        <ele>1602.7</ele>
        <time>2019-02-21T15:32:07Z</time>
      </trkpt>
      <trkpt lat="42.48808" lon="2.0903">
        <ele>1606.8</ele>
        <time>2019-02-21T15:32:07Z</time>
      </trkpt>
      <trkpt lat="42.48752" lon="2.08968">
        <ele>1609.9</ele>
        <time>2019-02-21T15:32:07Z</time>
      </trkpt>
      <trkpt lat="42.48697" lon="2.08921">
        <ele>1612</ele>
        <time>2019-02-21T15:32:07Z</time>
      </trkpt>
      <trkpt lat="42.48639" lon="2.08874">
        <ele>1612.6</ele>
        <time>2019-02-21T15:32:07Z</time>
      </trkpt>
      <trkpt lat="42.48587" lon="2.08819">
        <ele>1614.2</ele>
        <time>2019-02-21T15:32:07Z</time>
      </trkpt>
      <trkpt lat="42.4856" lon="2.08801">
        <ele>1615.8</ele>
        <time>2019-02-21T15:32:07Z</time>
      </trkpt>
      <trkpt lat="42.48531" lon="2.088">
        <ele>1617.1</ele>
        <time>2019-02-21T15:32:07Z</time>
      </trkpt>
      <trkpt lat="42.48423" lon="2.08817">
        <ele>1621</ele>
        <time>2019-02-21T15:32:07Z</time>
      </trkpt>
      <trkpt lat="42.48392" lon="2.08816">
        <ele>1619.7</ele>
        <time>2019-02-21T15:32:07Z</time>
      </trkpt>
      <trkpt lat="42.4831" lon="2.08771">
        <ele>1611.2</ele>
        <time>2019-02-21T15:32:07Z</time>
      </trkpt>
      <trkpt lat="42.48247" lon="2.08736">
        <ele>1607.6</ele>
        <time>2019-02-21T15:32:07Z</time>
      </trkpt>
      <trkpt lat="42.48186" lon="2.08698">
        <ele>1603.2</ele>
        <time>2019-02-21T15:32:07Z</time>
      </trkpt>
      <trkpt lat="42.48132" lon="2.08665">
        <ele>1600</ele>
        <time>2019-02-21T15:32:07Z</time>
      </trkpt>
      <trkpt lat="42.48078" lon="2.08627">
        <ele>1599.4</ele>
        <time>2019-02-21T15:32:07Z</time>
      </trkpt>
      <trkpt lat="42.48038" lon="2.08587">
        <ele>1598.4</ele>
        <time>2019-02-21T15:32:07Z</time>
      </trkpt>
      <trkpt lat="42.47997" lon="2.08546">
        <ele>1597.5</ele>
        <time>2019-02-21T15:32:07Z</time>
      </trkpt>
      <trkpt lat="42.47964" lon="2.08493">
        <ele>1594.9</ele>
        <time>2019-02-21T15:32:07Z</time>
      </trkpt>
      <trkpt lat="42.47933" lon="2.08448">
        <ele>1592.5</ele>
        <time>2019-02-21T15:32:07Z</time>
      </trkpt>
      <trkpt lat="42.479" lon="2.08384">
        <ele>1590</ele>
        <time>2019-02-21T15:32:07Z</time>
      </trkpt>
      <trkpt lat="42.47862" lon="2.08331">
        <ele>1590</ele>
        <time>2019-02-21T15:32:07Z</time>
      </trkpt>
      <trkpt lat="42.4783" lon="2.0829">
        <ele>1590.1</ele>
        <time>2019-02-21T15:32:07Z</time>
      </trkpt>
      <trkpt lat="42.47797" lon="2.08259">
        <ele>1590.3</ele>
        <time>2019-02-21T15:32:07Z</time>
      </trkpt>
      <trkpt lat="42.47761" lon="2.0824">
        <ele>1591.9</ele>
        <time>2019-02-21T15:32:07Z</time>
      </trkpt>
      <trkpt lat="42.47732" lon="2.0824">
        <ele>1593</ele>
        <time>2019-02-21T15:32:07Z</time>
      </trkpt>
      <trkpt lat="42.47685" lon="2.08287">
        <ele>1599.3</ele>
        <time>2019-02-21T15:32:07Z</time>
      </trkpt>
      <trkpt lat="42.47671" lon="2.08309">
        <ele>1602.6</ele>
        <time>2019-02-21T15:32:07Z</time>
      </trkpt>
      <trkpt lat="42.47646" lon="2.0833">
        <ele>1602.6</ele>
        <time>2019-02-21T15:32:07Z</time>
      </trkpt>
      <trkpt lat="42.47623" lon="2.08319">
        <ele>1598.3</ele>
        <time>2019-02-21T15:32:07Z</time>
      </trkpt>
      <trkpt lat="42.47598" lon="2.08287">
        <ele>1592.3</ele>
        <time>2019-02-21T15:32:07Z</time>
      </trkpt>
      <trkpt lat="42.47576" lon="2.08264">
        <ele>1589.1</ele>
        <time>2019-02-21T15:32:07Z</time>
      </trkpt>
      <trkpt lat="42.47558" lon="2.08252">
        <ele>1588.4</ele>
        <time>2019-02-21T15:32:07Z</time>
      </trkpt>
      <trkpt lat="42.47519" lon="2.08253">
        <ele>1588.9</ele>
        <time>2019-02-21T15:32:07Z</time>
      </trkpt>
      <trkpt lat="42.47479" lon="2.08266">
        <ele>1589.7</ele>
        <time>2019-02-21T15:32:07Z</time>
      </trkpt>
      <trkpt lat="42.47459" lon="2.08268">
        <ele>1589.6</ele>
        <time>2019-02-21T15:32:07Z</time>
      </trkpt>
      <trkpt lat="42.47446" lon="2.0826">
        <ele>1588.2</ele>
        <time>2019-02-21T15:32:07Z</time>
      </trkpt>
      <trkpt lat="42.47434" lon="2.0825">
        <ele>1586.6</ele>
        <time>2019-02-21T15:32:07Z</time>
      </trkpt>
      <trkpt lat="42.47409" lon="2.08267">
        <ele>1588.5</ele>
        <time>2019-02-21T15:32:07Z</time>
      </trkpt>
      <trkpt lat="42.47397" lon="2.08363">
        <ele>1601.4</ele>
        <time>2019-02-21T15:32:07Z</time>
      </trkpt>
    </trkseg>
  </trk>
</gpx>